Hourly Data Report for August 25, 2004

SHERBROOKE A
QUEBEC

45°26'00.000" N
71°41'00.000" W
241.40 m
7028124
71610
YSC

Download Data

Hourly Data (August 2004)
Hourly Data Report for August 25, 2004
TIME
LST
Temp Definition
°C
Dew Point Definition
°C
Rel Hum Definition
%
Precip. Amount Definition
mm

Wind Dir Definition
10's deg

Wind Spd Definition
km/h
Visibility Definition
km
Stn Press Definition
kPa
Hmdx Definition


Wind Chill Definition


Weather Definition


00:00 6.8 5.8 93   9 6 15.0 99.73      
01:00 6.3 5.3 93   9 6 15.0 99.75      
02:00 5.2 4.3 94   10 7 15.0 99.76      
03:00 4.8 4.0 95   10 7 15.0 99.74      
04:00 4.2 3.4 95   9 7 15.0 99.75      
05:00 4.3 3.5 95   7 7 15.0 99.79      
06:00 4.7 4.2 97   9 6 1.1 99.82      
07:00 7.2 6.5 95   7 4 24.1 99.87     Mostly Cloudy
08:00 10.7 8.1 84     0 24.1 99.83     Mainly Clear
09:00 15.6 11.1 75     0 24.1 99.82     Mainly Clear
10:00 19.1 12.2 64   13 6 24.1 99.80     Mainly Clear
11:00 21.2 11.5 54     0 24.1 99.74     Mainly Clear
12:00 22.3 10.7 48   22 9 24.1 99.68     Mainly Clear
13:00 23.0 10.0 44   22 6 24.1 99.66     Mainly Clear
14:00 24.4 11.0 43   21 7 24.1 99.63 26   Mainly Clear
15:00 24.3 9.3 39   18 13 15.0 99.59 25    
16:00 24.3 10.5 42   22 7 15.0 99.55 26    
17:00 23.6 12.4 49   21 9 15.0 99.55 26    
18:00 21.6 13.1 58   16 6 15.0 99.55      
19:00 18.1 12.9 72   16 7 15.0 99.59      
20:00 15.7 12.5 81   12 6 15.0 99.58      
21:00 13.9 12.1 89     0 15.0 99.56      
22:00 13.3 11.6 89   9 4 15.0 99.56      
23:00 12.8 11.4 91   9 4 15.0 99.58      

Notes on Data Quality.

Legend

  • E = Estimated
  • M = Missing
  • NA = Not Available*
  • [empty] = Indicates an unobserved value
Date modified: